Weather History for Emporia, KS

Change the Weather History Date:

Friday, February 15, 2013

  Actual Average Record
Temperature  
Mean Temperature 29 °F 35 °F  
Max Temperature 39 °F 46 °F 68 °F (2000)
Min Temperature 18 °F 24 °F 0 °F (2007)
Degree Days  
Heating Degree Days 36 30  
Month to date heating degree days 412 474  
Since 1 July heating degree days 3129 3462  
Cooling Degree Days 0 0  
Month to date cooling degree days 0 0  
Year to date cooling degree days 0 0  
Moisture  
Dew Point 17 °F    
Average Humidity 60    
Maximum Humidity 84    
Minimum Humidity 35    
Precipitation  
Precipitation T in 0.03 in 0.03 in (1998)
Month to date precipitation 1.38 0.66  
Year to date precipitation 1.87 1.29  
Sea Level Pressure  
Sea Level Pressure 30.36 in    
Wind  
Wind Speed 12 mph (NW)    
Max Wind Speed 24 mph    
Max Gust Speed 30 mph    
Visibility 9 miles    
Events Snow    
T = Trace of Precipitation, MM = Missing Value Source: NWS Daily Summary

Daily Weather History Graph

Daily Weather History Graph

Search for Another Location

Airport:

Trip Planner

Search our weather history database for the weather conditions in past years. The results will help you decide how hot, cold, wet, or windy it might be!

Date:

Astronomy

Feb. 15, 2013 Rise Set
Actual Time 7:14 AM CST 6:03 PM CST
Civil Twilight 6:47 AM CST 6:30 PM CST
Nautical Twilight 6:16 AM CST 7:01 PM CST
Astronomical Twilight 5:46 AM CST 7:32 PM CST
Moon 9:57 AM CST (2/15) 11:59 PM CST (2/15)
Length of Visible Light 11h 42m
Length of Day
10h 48m
Waxing Crescent, 30% of the Moon is Illuminated
Feb 15
Waxing Crescent
Feb 17
First Quarter
Feb 25
Full
Mar 4
Last Quarter
Mar 11
New

Hourly Weather History & Observations

Time (CST) Temp. Windchill Dew Point Humidity Pressure Visibility Wind Dir Wind Speed Gust Speed Precip Events Conditions
12:40 AM 30.2 °F 19.8 °F 21.2 °F 69% 30.26 in 10.0 mi NW 13.8 mph - N/A   Mostly Cloudy
12:53 AM 30.9 °F 20.7 °F 21.9 °F 69% 30.29 in 10.0 mi NW 13.8 mph - N/A   Overcast
1:53 AM 30.9 °F 18.1 °F 23.0 °F 72% 30.31 in 10.0 mi North 21.9 mph 28.8 mph N/A   Overcast
2:53 AM 27.0 °F 13.9 °F 19.0 °F 72% 30.35 in 10.0 mi NNW 18.4 mph 28.8 mph N/A   Mostly Cloudy
3:00 AM 26.6 °F 13.4 °F 19.4 °F 74% 30.31 in 10.0 mi NNW 18.4 mph 25.3 mph N/A   Scattered Clouds
3:53 AM 24.1 °F 13.7 °F 18.0 °F 77% 30.36 in 10.0 mi NNW 10.4 mph 20.7 mph N/A   Clear
4:53 AM 21.9 °F 9.8 °F 18.0 °F 85% 30.38 in 10.0 mi NNW 12.7 mph - N/A   Clear
5:53 AM 19.9 °F 7.9 °F 15.1 °F 81% 30.40 in 10.0 mi NW 11.5 mph - N/A   Clear
6:53 AM 19.0 °F 9.0 °F 14.0 °F 81% 30.42 in 10.0 mi NNW 8.1 mph - N/A   Clear
7:53 AM 19.9 °F 10.1 °F 12.9 °F 74% 30.43 in 10.0 mi NW 8.1 mph - N/A   Clear
8:53 AM 23.0 °F 10.6 °F 14.0 °F 68% 30.45 in 10.0 mi NW 13.8 mph - N/A   Clear
9:53 AM 27.0 °F 16.1 °F 12.9 °F 56% 30.44 in 10.0 mi NNW 12.7 mph - N/A   Clear
10:53 AM 30.0 °F 19.5 °F 10.0 °F 43% 30.43 in 10.0 mi NNW 13.8 mph 18.4 mph N/A   Clear
11:53 AM 34.0 °F 25.5 °F 9.0 °F 35% 30.42 in 10.0 mi North 11.5 mph 17.3 mph N/A   Clear
12:53 PM 37.0 °F 29.8 °F 12.9 °F 37% 30.40 in 10.0 mi NNW 10.4 mph - N/A   Clear
1:53 PM 37.0 °F 31.6 °F 14.0 °F 39% 30.38 in 10.0 mi Variable 6.9 mph 17.3 mph N/A   Clear
2:53 PM 37.9 °F 30.5 °F 12.9 °F 36% 30.37 in 10.0 mi North 11.5 mph - N/A   Partly Cloudy
3:53 PM 37.9 °F 30.5 °F 12.9 °F 36% 30.36 in 10.0 mi NNW 11.5 mph - N/A   Clear
4:53 PM 37.0 °F 31.0 °F 14.0 °F 39% 30.35 in 10.0 mi WNW 8.1 mph - N/A   Mostly Cloudy
5:53 PM 34.0 °F 28.8 °F 15.1 °F 46% 30.34 in 10.0 mi West 5.8 mph - N/A   Partly Cloudy
6:53 PM 28.9 °F 23.9 °F 14.0 °F 54% 30.34 in 10.0 mi WSW 4.6 mph - N/A   Clear
7:53 PM 27.0 °F 21.6 °F 16.0 °F 63% 30.34 in 10.0 mi West 4.6 mph - N/A   Overcast
8:40 PM 30.2 °F 21.3 °F 21.2 °F 69% 30.30 in 1.8 mi NW 10.4 mph 20.7 mph 0.00 in Snow Light Snow
8:46 PM 30.2 °F 20.2 °F 24.8 °F 80% 30.31 in 2.0 mi NW 12.7 mph - 0.00 in Snow Light Snow
8:53 PM 32.0 °F 19.5 °F 25.0 °F 75% 30.36 in 7.0 mi NNW 21.9 mph 28.8 mph 0.00 in   Overcast
9:11 PM 30.2 °F 18.9 °F 24.8 °F 80% 30.32 in 9.0 mi NNW 16.1 mph 23.0 mph 0.00 in   Overcast
9:53 PM 28.9 °F 19.2 °F 19.9 °F 69% 30.37 in 10.0 mi NNW 11.5 mph 20.7 mph 0.00 in   Mostly Cloudy
10:53 PM 27.0 °F 16.1 °F 18.0 °F 69% 30.38 in 10.0 mi NNW 12.7 mph - N/A   Clear
11:53 PM 24.1 °F 13.7 °F 16.0 °F 71% 30.37 in 10.0 mi NW 10.4 mph - N/A   Clear